Change the Weather History Date:

Friday, December 12, 2014

  Actual Average Record
Temperature  
Mean Temperature 42 °F 30 °F  
Max Temperature 50 °F 43 °F 64 °F (1921)
Min Temperature 33 °F 17 °F -16 °F (1961)
Degree Days  
Heating Degree Days 23 35  
Month to date heating degree days 309 413  
Since 1 July heating degree days 1726 2145  
Cooling Degree Days 0 0  
Month to date cooling degree days 0 0  
Year to date cooling degree days 109 117  
Moisture  
Dew Point 34 °F    
Average Humidity 66    
Maximum Humidity 89    
Minimum Humidity 42    
Precipitation  
Precipitation 0.05 in 0.06 in 0.88 in (1937)
Month to date precipitation 1.84 0.68  
Year to date precipitation 19.07 20.67  
Snow  
Snow 0.00 in 0.60 in 14.00 in (1932)
Month to date snowfall 0.0 6.2  
Since 1 July snowfall T 18.4  
Snow Depth 0.00 in    
Sea Level Pressure  
Sea Level Pressure 30.02 in    
Wind  
Wind Speed 13 mph (SSW)    
Max Wind Speed 30 mph    
Max Gust Speed 38 mph    
Visibility 10 miles    
Events Rain    
T = Trace of Precipitation, MM = Missing Value Source: NWS Daily Summary

Daily Weather History Graph

Daily Weather History Graph

Search for Another Location

Airport or City:

Trip Planner

Search our weather history database for the weather conditions in past years. The results will help you decide how hot, cold, wet, or windy it might be!

Date:

Astronomy

Dec. 12, 2014 Rise Set
Actual Time 7:25 AM MST 5:15 PM MST
Civil Twilight 6:57 AM MST 5:43 PM MST
Nautical Twilight 6:25 AM MST 6:15 PM MST
Astronomical Twilight 5:54 AM MST 6:45 PM MST
Moon 11:14 PM MST (12/12) 11:31 AM MST (12/12)
Length of Visible Light 10h 45m
Length of Day
9h 49m
Waning Gibbous, 66% of the Moon is Illuminated
Dec 12
Waning Gibbous
Dec 14
Last Quarter
Dec 21
New
Dec 28
First Quarter
Jan 4
Full

Hourly Weather History & Observations

Time (MST) Temp. Windchill Dew Point Humidity Pressure Visibility Wind Dir Wind Speed Gust Speed Precip Events Conditions
12:57 AM 35.1 °F - 32.0 °F 89% 30.06 in 10.0 mi Calm Calm - N/A   Mostly Cloudy
1:57 AM 35.1 °F - 32.0 °F 89% 30.05 in 10.0 mi Calm Calm - N/A   Mostly Cloudy
2:57 AM 39.9 °F 35.8 °F 32.0 °F 73% 30.03 in 10.0 mi West 5.8 mph - N/A   Overcast
3:57 AM 42.1 °F 40.2 °F 30.9 °F 65% 30.02 in 10.0 mi West 3.5 mph - N/A   Scattered Clouds
4:57 AM 39.0 °F - 30.9 °F 73% 30.05 in 10.0 mi Calm Calm - N/A   Clear
5:57 AM 41.0 °F - 30.9 °F 67% 30.06 in 10.0 mi Calm Calm - N/A   Overcast
6:57 AM 39.0 °F - 30.9 °F 73% 30.09 in 10.0 mi Calm Calm - N/A   Scattered Clouds
7:57 AM 39.9 °F 35.8 °F 28.0 °F 63% 30.08 in 10.0 mi South 5.8 mph - N/A   Clear
8:57 AM 44.1 °F 40.8 °F 28.9 °F 55% 30.08 in 10.0 mi SSW 5.8 mph - N/A   Clear
9:57 AM 48.0 °F - 28.9 °F 48% 30.07 in 10.0 mi SSW 13.8 mph 23.0 mph N/A   Clear
10:57 AM 48.9 °F - 27.0 °F 43% 30.08 in 10.0 mi SW 25.3 mph 32.2 mph N/A   Clear
11:57 AM 48.9 °F - 27.0 °F 43% 30.03 in 10.0 mi SSW 13.8 mph 34.5 mph N/A   Clear
12:57 PM 48.0 °F - 32.0 °F 54% 30.00 in 10.0 mi SSW 19.6 mph 32.2 mph N/A   Mostly Cloudy
1:57 PM 48.0 °F - 35.1 °F 61% 29.99 in 10.0 mi SW 18.4 mph 29.9 mph N/A   Overcast
2:57 PM 46.9 °F - 36.0 °F 66% 29.96 in 10.0 mi SSW 13.8 mph 28.8 mph N/A   Mostly Cloudy
3:45 PM 46.0 °F 39.0 °F 35.1 °F 66% 30.09 in 10.0 mi SSW 17.3 mph 32.2 mph N/A   Mostly Cloudy
3:57 PM 46.0 °F 38.8 °F 36.0 °F 68% 29.94 in 10.0 mi SSW 18.4 mph 25.3 mph N/A   Mostly Cloudy
4:05 PM 46.4 °F 39.8 °F 35.6 °F 66% 30.08 in 10.0 mi SSW 16.1 mph 27.6 mph N/A   Mostly Cloudy
4:42 PM 45.0 °F 37.1 °F 36.0 °F 71% 30.07 in 10.0 mi SSW 19.6 mph 26.5 mph N/A   Mostly Cloudy
4:57 PM 45.0 °F 37.1 °F 36.0 °F 71% 29.94 in 10.0 mi SSW 19.6 mph 31.1 mph N/A   Scattered Clouds
5:06 PM 45.0 °F 37.6 °F 36.0 °F 71% 30.07 in 10.0 mi SSW 17.3 mph 26.5 mph N/A   Mostly Cloudy
5:57 PM 45.0 °F 36.6 °F 36.0 °F 71% 29.93 in 10.0 mi SSW 21.9 mph 29.9 mph N/A   Mostly Cloudy
6:04 PM 45.0 °F 37.6 °F 36.0 °F 71% 30.06 in 10.0 mi SSW 17.3 mph 29.9 mph N/A   Partly Cloudy
6:57 PM 45.0 °F 36.2 °F 37.0 °F 74% 29.94 in 10.0 mi SSW 24.2 mph 35.7 mph N/A   Partly Cloudy
7:57 PM 45.0 °F 36.9 °F 37.0 °F 74% 29.93 in 10.0 mi SSW 20.7 mph 36.8 mph N/A   Scattered Clouds
8:18 PM 44.1 °F 35.4 °F 37.0 °F 76% 30.06 in 10.0 mi SSW 21.9 mph 28.8 mph N/A   Mostly Cloudy
8:41 PM 44.1 °F 35.7 °F 37.0 °F 76% 30.06 in 10.0 mi SW 20.7 mph 27.6 mph N/A   Scattered Clouds
8:57 PM 44.1 °F 35.9 °F 37.0 °F 76% 29.92 in 10.0 mi SW 19.6 mph 32.2 mph N/A   Mostly Cloudy
9:57 PM 44.1 °F 37.1 °F 37.0 °F 76% 29.89 in 10.0 mi SSW 15.0 mph - N/A   Overcast
10:41 PM 43.0 °F 35.7 °F 37.9 °F 82% 30.06 in 10.0 mi SSW 15.0 mph 26.5 mph 0.00 in Rain Light Rain
10:57 PM 41.0 °F 31.6 °F 37.9 °F 89% 29.90 in 8.0 mi SSW 20.7 mph 31.1 mph 0.01 in Rain Light Rain
11:13 PM 41.0 °F 31.6 °F 37.9 °F 89% 30.04 in 10.0 mi SSW 20.7 mph 33.4 mph 0.00 in   Overcast
11:57 PM 41.0 °F 30.9 °F 37.9 °F 89% 29.88 in 3.0 mi SSW 24.2 mph 35.7 mph 0.03 in Rain Heavy Rain